Regional Weather Roundup
Issued by NWS

Home | Current Version | Previous Version | Text Only | Print | Product List | Glossary On
Versions: 1 2 3 4 5 6 7 8 9 10 11 12 13 14 15 16 17 18 19 20 21 22 23 24 25 26 27 28 29 30 31 32 33 34 35 36 37 38 39 40 41 42 43 44 45 46 47 48 49 50
000
ASUS43 KLSX 251207
RWRMO

WEATHER SUMMARY FOR MISSOURI
NATIONAL WEATHER SERVICE SPRINGFIELD MO
700 AM CDT SAT APR 25 2015

NOTE: "FAIR" INDICATES FEW OR NO CLOUDS BELOW 12,000 FEET WITH NO
       SIGNIFICANT WEATHER AND/OR OBSTRUCTIONS TO VISIBILITY.
       CURRENT SKY AND/OR WEATHER CONDITIONS ARE NOT AVAILABLE FOR
       CHILLICOTHE AND FARMINGTON.

MOZ001>031-035>038-043-044-053-054-251300-
...NORTHERN AND WESTERN MISSOURI...

CITY           SKY/WX    TMP DP  RH WIND       PRES   REMARKS
KANSAS CTY INT LGT RAIN  56  55  97 NW12      29.42R
6HR MIN TEMP:  55; 6HR MAX TEMP:  60; 6HR PCP:  0.13;

KANSAS C DTWN  TSTM      58  55  90 CALM      29.41R
6HR MIN TEMP:  57; 6HR MAX TEMP:  62; 6HR PCP:  0.03;

LEE`S SUMMIT   CLOUDY    57  56  96 S6        29.42F
6HR MIN TEMP:  55; 6HR MAX TEMP:  59; 6HR PCP:  0.06;

ST JOSEPH      LGT RAIN  57  55  93 SE7       29.43R FOG
6HR MIN TEMP:  56; 6HR MAX TEMP:  60; 6HR PCP:  0.60;

CHILLICOTHE      N/A     55  53  93 E9        29.47R
6HR MIN TEMP:  55; 6HR MAX TEMP:  57; 6HR PCP:  0.40;

KIRKSVILLE     RAIN      52  52 100 E10       29.54R FOG
6HR MIN TEMP:  52; 6HR MAX TEMP:  56; 6HR PCP:  0.25;


$$
MOZ066>068-077>081-088>096-101>105-251300-
...SOUTHWEST MISSOURI...

CITY           SKY/WX    TMP DP  RH WIND       PRES   REMARKS
SPRINGFIELD    FAIR      58  56  93 S15       29.50S
6HR MIN TEMP:  58; 6HR MAX TEMP:  59;

JOPLIN         PTCLDY    62  56  80 SW24G33   29.48S
6HR MIN TEMP:  61; 6HR MAX TEMP:  62;


$$
MOZ032>034-039>042-045>050-055>058-069>072-251300-
...CENTRAL MISSOURI...

CITY           SKY/WX    TMP DP  RH WIND       PRES   REMARKS
COLUMBIA       CLOUDY    57  55  93 SE10      29.50S
6HR MIN TEMP:  54; 6HR MAX TEMP:  57; 6HR PCP:  0.06;

JEFFERSON CITY CLOUDY    58  55  90 SE7       29.50F
6HR MIN TEMP:  56; 6HR MAX TEMP:  58; 6HR PCP: TRACE;

ROLLA          CLOUDY    56  55  97 S15       29.51F
6HR MIN TEMP:  53; 6HR MAX TEMP:  56; 6HR PCP: TRACE;

SEDALIA        CLOUDY    61  57  87 S12       29.46F
6HR MIN TEMP:  56; 6HR MAX TEMP:  61; 6HR PCP: TRACE;

WHITEMAN AFB   CLOUDY    59  58  97 S9        29.43F
WARRENSBURG    CLOUDY    57  55  94 SE7       29.43S
OSAGE BEACH    MOCLDY    61  55  82 S5        29.51R

$$
MOZ051-052-059>065-251300-
...EAST CENTRAL MISSOURI...

CITY           SKY/WX    TMP DP  RH WIND       PRES   REMARKS
ST LOUIS INTL  LGT RAIN  55  54  94 SE12      29.58S FOG
6HR MIN TEMP:  56; 6HR MAX TEMP:  57; 6HR PCP: TRACE;

SPIRIT OF STL  CLOUDY    55  53  93 VRB3      29.55F FOG
6HR MIN TEMP:  53; 6HR MAX TEMP:  55; 6HR PCP:  0.03;

ST CHARLES     CLOUDY    55  53  93 SE13      29.56F FOG
6HR MIN TEMP:  54; 6HR MAX TEMP:  55; 6HR PCP:  0.02;


$$
MOZ072>076-082>087-097>100-106>115-251300-
...SOUTH CENTRAL AND SOUTHEAST MISSOURI...

CITY           SKY/WX    TMP DP  RH WIND       PRES   REMARKS
CAPE GIRARDEAU CLOUDY    57  57 100 SE9       29.62S FOG
6HR MIN TEMP:  56; 6HR MAX TEMP:  57;

FARMINGTON     CLOUDY    55  54  94 SE6       29.61F
6HR MIN TEMP:  54; 6HR MAX TEMP:  55;

POPLAR BLUFF   CLOUDY    57  56  96 SE8       29.59F FOG
6HR MIN TEMP:  55; 6HR MAX TEMP:  57;

WEST PLAINS    CLOUDY    59  57  93 S6        29.57S
6HR MIN TEMP:  52; 6HR MAX TEMP:  59;


$$


USA.gov is the U.S. government's official web portal to all federal, state and local government web resources and services.